Time,TemperatureF,DewpointF,PressureIn,WindDirection,WindDirectionDegrees,WindSpeedMPH,WindSpeedGustMPH,Humidity,HourlyPrecipIn,Conditions,Clouds,dailyrainin,SoftwareType,DateUTC
2013-10-23 00:00:00,47.8,47.5,29.59,East,90,0.0,-999.0,99,-99.99,,,0.00,Acu-Link.com,2013-10-23 04:00:00,
2013-10-23 00:15:00,47.7,47.4,29.60,ESE,112,0.0,-999.0,99,-99.99,,,0.00,Acu-Link.com,2013-10-23 04:15:00,
2013-10-23 00:30:00,47.1,46.8,29.59,NNE,22,0.0,-999.0,99,-99.99,,,0.00,Acu-Link.com,2013-10-23 04:30:00,
2013-10-23 00:45:00,47.1,46.8,29.58,WNW,292,0.0,-999.0,99,-99.99,,,0.00,Acu-Link.com,2013-10-23 04:45:00,
2013-10-23 01:00:00,46.2,45.9,29.58,NW,315,0.0,-999.0,99,-99.99,,,0.00,Acu-Link.com,2013-10-23 05:00:00,
2013-10-23 01:16:00,45.7,45.4,29.57,East,90,0.0,-999.0,99,-99.99,,,0.00,Acu-Link.com,2013-10-23 05:16:00,
2013-10-23 01:31:00,45.7,45.4,29.57,East,90,0.0,-999.0,99,-99.99,,,0.00,Acu-Link.com,2013-10-23 05:31:00,
2013-10-23 01:46:00,44.8,44.5,29.57,WNW,292,0.0,-999.0,99,-99.99,,,0.00,Acu-Link.com,2013-10-23 05:46:00,
2013-10-23 02:02:00,44.4,44.1,29.57,NNE,22,0.0,-999.0,99,-99.99,,,0.00,Acu-Link.com,2013-10-23 06:02:00,
2013-10-23 02:17:00,44.6,44.3,29.56,NNE,22,0.0,-999.0,99,-99.99,,,0.00,Acu-Link.com,2013-10-23 06:17:00,
2013-10-23 02:32:00,43.7,43.4,29.56,NNE,22,0.0,-999.0,99,-99.99,,,0.00,Acu-Link.com,2013-10-23 06:32:00,
2013-10-23 02:47:00,43.2,42.9,29.57,WNW,292,0.0,-999.0,99,-99.99,,,0.00,Acu-Link.com,2013-10-23 06:47:00,
2013-10-23 03:03:00,43.0,42.7,29.56,ESE,112,0.0,-999.0,99,-99.99,,,0.00,Acu-Link.com,2013-10-23 07:03:00,
2013-10-23 03:18:00,43.7,43.4,29.56,WNW,292,0.0,-999.0,99,-99.99,,,0.00,Acu-Link.com,2013-10-23 07:18:00,
2013-10-23 03:34:00,44.4,44.1,29.55,WNW,292,0.0,-999.0,99,-99.99,,,0.00,Acu-Link.com,2013-10-23 07:34:00,
2013-10-23 03:49:00,45.5,45.2,29.55,SE,135,0.0,-999.0,99,-99.99,,,0.00,Acu-Link.com,2013-10-23 07:49:00,
2013-10-23 04:04:00,43.9,43.6,29.56,SW,225,0.0,-999.0,99,-99.99,,,0.00,Acu-Link.com,2013-10-23 08:04:00,
2013-10-23 04:19:00,44.2,43.9,29.55,NW,315,0.0,-999.0,99,-99.99,,,0.00,Acu-Link.com,2013-10-23 08:19:00,
2013-10-23 04:35:00,45.5,45.2,29.56,NW,315,2.2,-999.0,99,-99.99,,,0.00,Acu-Link.com,2013-10-23 08:35:00,
2013-10-23 04:50:00,45.9,45.6,29.56,SSW,202,0.0,-999.0,99,-99.99,,,0.00,Acu-Link.com,2013-10-23 08:50:00,
2013-10-23 05:05:00,45.7,45.4,29.55,SSE,157,3.2,-999.0,99,-99.99,,,0.00,Acu-Link.com,2013-10-23 09:05:00,
2013-10-23 05:20:00,45.5,45.2,29.54,NNE,22,0.0,-999.0,99,-99.99,,,0.00,Acu-Link.com,2013-10-23 09:20:00,
2013-10-23 05:35:00,46.0,44.9,29.53,West,270,0.0,-999.0,96,-99.99,,,0.00,Acu-Link.com,2013-10-23 09:35:00,
2013-10-23 05:50:00,45.7,44.4,29.54,SW,225,0.0,-999.0,95,-99.99,,,0.00,Acu-Link.com,2013-10-23 09:50:00,
2013-10-23 06:06:00,43.2,42.9,29.55,West,270,2.2,-999.0,99,-99.99,,,0.00,Acu-Link.com,2013-10-23 10:06:00,
2013-10-23 06:21:00,42.8,42.5,29.55,West,270,2.2,-999.0,99,-99.99,,,0.00,Acu-Link.com,2013-10-23 10:21:00,
2013-10-23 06:36:00,42.4,42.1,29.55,West,270,0.0,-999.0,99,-99.99,,,0.00,Acu-Link.com,2013-10-23 10:36:00,
2013-10-23 06:51:00,42.1,41.8,29.55,West,270,0.0,-999.0,99,-99.99,,,0.00,Acu-Link.com,2013-10-23 10:51:00,
2013-10-23 07:06:00,41.9,41.6,29.55,WNW,292,0.0,-999.0,99,-99.99,,,0.00,Acu-Link.com,2013-10-23 11:06:00,
2013-10-23 07:21:00,42.4,42.1,29.54,NNW,337,0.0,-999.0,99,-99.99,,,0.00,Acu-Link.com,2013-10-23 11:21:00,
2013-10-23 07:36:00,41.5,41.2,29.54,East,90,0.0,-999.0,99,-99.99,,,0.00,Acu-Link.com,2013-10-23 11:36:00,
2013-10-23 07:51:00,40.8,40.5,29.54,SSE,157,0.0,-999.0,99,-99.99,,,0.00,Acu-Link.com,2013-10-23 11:51:00,
2013-10-23 08:06:00,40.6,40.3,29.56,SSW,202,0.0,-999.0,99,-99.99,,,0.00,Acu-Link.com,2013-10-23 12:06:00,
2013-10-23 08:22:00,42.1,41.8,29.56,ESE,112,0.0,-999.0,99,-99.99,,,0.00,Acu-Link.com,2013-10-23 12:22:00,
2013-10-23 08:37:00,43.3,43.0,29.56,South,180,0.0,-999.0,99,-99.99,,,0.00,Acu-Link.com,2013-10-23 12:37:00,
2013-10-23 08:52:00,44.2,43.9,29.56,NNW,337,0.0,-999.0,99,-99.99,,,0.00,Acu-Link.com,2013-10-23 12:52:00,
2013-10-23 09:07:00,46.0,45.2,29.56,West,270,0.0,-999.0,97,-99.99,,,0.00,Acu-Link.com,2013-10-23 13:07:00,
2013-10-23 09:22:00,50.5,46.8,29.56,NW,315,0.0,-999.0,87,-99.99,,,0.00,Acu-Link.com,2013-10-23 13:22:00,
2013-10-23 09:37:00,55.2,46.0,29.57,SSW,202,0.0,-999.0,71,-99.99,,,0.00,Acu-Link.com,2013-10-23 13:37:00,
2013-10-23 09:52:00,57.9,43.2,29.57,SW,225,3.7,-999.0,58,-99.99,,,0.00,Acu-Link.com,2013-10-23 13:52:00,
2013-10-23 10:07:00,56.8,39.4,29.56,North,0,2.7,-999.0,52,-99.99,,,0.00,Acu-Link.com,2013-10-23 14:07:00,
2013-10-23 10:22:00,58.5,39.9,29.56,NW,315,5.3,-999.0,50,-99.99,,,0.00,Acu-Link.com,2013-10-23 14:22:00,
2013-10-23 10:38:00,59.5,36.4,29.56,North,0,3.7,-999.0,42,-99.99,,,0.00,Acu-Link.com,2013-10-23 14:38:00,
2013-10-23 10:53:00,58.1,34.5,29.57,West,270,3.2,-999.0,41,-99.99,,,0.00,Acu-Link.com,2013-10-23 14:53:00,
2013-10-23 11:08:00,57.9,32.5,29.56,WNW,292,5.3,-999.0,38,-99.99,,,0.00,Acu-Link.com,2013-10-23 15:08:00,
2013-10-23 11:23:00,59.0,32.1,29.57,SW,225,9.9,-999.0,36,-99.99,,,0.00,Acu-Link.com,2013-10-23 15:23:00,
2013-10-23 11:38:00,60.3,35.9,29.57,West,270,5.3,-999.0,40,-99.99,,,0.00,Acu-Link.com,2013-10-23 15:38:00,
2013-10-23 11:53:00,60.6,35.5,29.57,NNE,22,3.2,-999.0,39,-99.99,,,0.00,Acu-Link.com,2013-10-23 15:53:00,
2013-10-23 12:08:00,59.4,35.1,29.57,SSW,202,4.7,-999.0,40,-99.99,,,0.00,Acu-Link.com,2013-10-23 16:08:00,
2013-10-23 12:23:00,60.4,35.3,29.58,SE,135,3.2,-999.0,39,-99.99,,,0.00,Acu-Link.com,2013-10-23 16:23:00,
2013-10-23 12:38:00,61.0,33.9,29.58,West,270,4.2,-999.0,36,-99.99,,,0.00,Acu-Link.com,2013-10-23 16:38:00,
2013-10-23 12:54:00,60.6,34.9,29.58,NNE,22,4.7,-999.0,38,-99.99,,,0.00,Acu-Link.com,2013-10-23 16:54:00,
2013-10-23 13:09:00,60.1,35.1,29.59,WSW,247,5.8,-999.0,39,-99.99,,,0.00,Acu-Link.com,2013-10-23 17:09:00,
2013-10-23 13:24:00,59.7,36.0,29.58,NW,315,5.8,-999.0,41,-99.99,,,0.00,Acu-Link.com,2013-10-23 17:24:00,
2013-10-23 13:39:00,60.3,34.6,29.60,SE,135,2.7,-999.0,38,-99.99,,,0.00,Acu-Link.com,2013-10-23 17:39:00,
2013-10-23 13:54:00,59.9,34.2,29.59,SW,225,4.2,-999.0,38,-99.99,,,0.00,Acu-Link.com,2013-10-23 17:54:00,
2013-10-23 14:09:00,59.2,34.3,29.61,West,270,11.4,-999.0,39,-99.99,,,0.00,Acu-Link.com,2013-10-23 18:09:00,
2013-10-23 14:24:00,57.9,34.3,29.60,WSW,247,6.3,-999.0,41,-99.99,,,0.00,Acu-Link.com,2013-10-23 18:24:00,
2013-10-23 14:39:00,58.6,33.1,29.60,SE,135,2.7,-999.0,38,-99.99,,,0.00,Acu-Link.com,2013-10-23 18:39:00,
2013-10-23 14:54:00,59.4,34.4,29.61,SE,135,2.7,-999.0,39,-99.99,,,0.00,Acu-Link.com,2013-10-23 18:54:00,
2013-10-23 15:10:00,56.3,32.9,29.62,NNW,337,7.3,-999.0,41,-99.99,,,0.00,Acu-Link.com,2013-10-23 19:10:00,
2013-10-23 15:25:00,56.7,32.7,29.61,SSW,202,5.3,-999.0,40,-99.99,,,0.00,Acu-Link.com,2013-10-23 19:25:00,
2013-10-23 15:40:00,56.7,32.0,29.62,SSW,202,5.3,-999.0,39,-99.99,,,0.00,Acu-Link.com,2013-10-23 19:40:00,
2013-10-23 15:55:00,55.9,31.9,29.63,WNW,292,6.3,-999.0,40,-99.99,,,0.00,Acu-Link.com,2013-10-23 19:55:00,
2013-10-23 16:10:00,55.4,31.5,29.64,West,270,4.7,-999.0,40,-99.99,,,0.00,Acu-Link.com,2013-10-23 20:10:00,
2013-10-23 16:25:00,54.5,31.3,29.65,SSW,202,2.7,-999.0,41,-99.99,,,0.00,Acu-Link.com,2013-10-23 20:25:00,
2013-10-23 16:40:00,54.5,32.5,29.65,SSW,202,3.7,-999.0,43,-99.99,,,0.00,Acu-Link.com,2013-10-23 20:40:00,
2013-10-23 16:55:00,53.6,32.2,29.65,East,90,7.3,-999.0,44,-99.99,,,0.00,Acu-Link.com,2013-10-23 20:55:00,
2013-10-23 17:10:00,52.0,30.8,29.66,West,270,2.2,-999.0,44,-99.99,,,0.00,Acu-Link.com,2013-10-23 21:10:00,
2013-10-23 17:26:00,51.8,31.7,29.67,SSW,202,8.9,-999.0,46,-99.99,,,0.00,Acu-Link.com,2013-10-23 21:26:00,
2013-10-23 17:41:00,50.0,30.6,29.67,NNE,22,6.3,-999.0,47,-99.99,,,0.00,Acu-Link.com,2013-10-23 21:41:00,
2013-10-23 17:56:00,49.5,30.1,29.69,South,180,4.2,-999.0,47,-99.99,,,0.00,Acu-Link.com,2013-10-23 21:56:00,
2013-10-23 18:11:00,48.0,30.3,29.69,WNW,292,5.3,-999.0,50,-99.99,,,0.00,Acu-Link.com,2013-10-23 22:11:00,
2013-10-23 18:26:00,46.6,30.4,29.70,WNW,292,0.0,-999.0,53,-99.99,,,0.00,Acu-Link.com,2013-10-23 22:26:00,
2013-10-23 18:41:00,43.7,29.5,29.71,West,270,6.3,-999.0,57,-99.99,,,0.00,Acu-Link.com,2013-10-23 22:41:00,
2013-10-23 18:56:00,42.6,28.9,29.72,South,180,2.7,-999.0,58,-99.99,,,0.00,Acu-Link.com,2013-10-23 22:56:00,
2013-10-23 19:11:00,41.7,28.4,29.73,SE,135,5.3,-999.0,59,-99.99,,,0.00,Acu-Link.com,2013-10-23 23:11:00,
2013-10-23 19:26:00,41.0,29.0,29.74,West,270,3.2,-999.0,62,-99.99,,,0.00,Acu-Link.com,2013-10-23 23:26:00,
2013-10-23 19:42:00,40.6,29.8,29.74,NW,315,2.2,-999.0,65,-99.99,,,0.00,Acu-Link.com,2013-10-23 23:42:00,
2013-10-23 19:57:00,40.3,28.7,29.76,NE,45,0.0,-999.0,63,-99.99,,,0.00,Acu-Link.com,2013-10-23 23:57:00,
2013-10-23 20:12:00,39.7,28.2,29.76,ESE,112,4.2,-999.0,63,-99.99,,,0.00,Acu-Link.com,2013-10-24 00:12:00,
2013-10-23 20:27:00,39.4,28.3,29.77,West,270,1.1,-999.0,64,-99.99,,,0.00,Acu-Link.com,2013-10-24 00:27:00,
2013-10-23 20:42:00,39.2,28.4,29.76,SSE,157,2.7,-999.0,65,-99.99,,,0.00,Acu-Link.com,2013-10-24 00:42:00,
2013-10-23 20:57:00,39.0,28.2,29.77,NNE,22,4.2,-999.0,65,-99.99,,,0.00,Acu-Link.com,2013-10-24 00:57:00,
2013-10-23 21:12:00,38.8,28.4,29.76,WNW,292,4.7,-999.0,66,-99.99,,,0.00,Acu-Link.com,2013-10-24 01:12:00,
2013-10-23 21:27:00,38.8,28.4,29.77,South,180,0.0,-999.0,66,-99.99,,,0.00,Acu-Link.com,2013-10-24 01:27:00,
2013-10-23 21:42:00,38.5,28.9,29.77,East,90,4.2,-999.0,68,-99.99,,,0.00,Acu-Link.com,2013-10-24 01:42:00,
2013-10-23 21:58:00,38.5,28.9,29.78,West,270,1.7,-999.0,68,-99.99,,,0.00,Acu-Link.com,2013-10-24 01:58:00,
2013-10-23 22:13:00,37.9,29.0,29.79,NE,45,4.2,-999.0,70,-99.99,,,0.00,Acu-Link.com,2013-10-24 02:13:00,
2013-10-23 22:28:00,37.8,29.6,29.80,South,180,2.7,-999.0,72,-99.99,,,0.00,Acu-Link.com,2013-10-24 02:28:00,
2013-10-23 22:43:00,37.8,30.3,29.81,NE,45,2.2,-999.0,74,-99.99,,,0.00,Acu-Link.com,2013-10-24 02:43:00,
2013-10-23 22:58:00,37.9,30.4,29.79,North,0,3.2,-999.0,74,-99.99,,,0.00,Acu-Link.com,2013-10-24 02:58:00,
2013-10-23 23:13:00,37.8,30.3,29.80,ESE,112,1.7,-999.0,74,-99.99,,,0.00,Acu-Link.com,2013-10-24 03:13:00,
2013-10-23 23:28:00,37.2,29.7,29.81,West,270,0.0,-999.0,74,-99.99,,,0.00,Acu-Link.com,2013-10-24 03:28:00,
2013-10-23 23:43:00,36.9,29.1,29.81,ESE,112,0.0,-999.0,73,-99.99,,,0.00,Acu-Link.com,2013-10-24 03:43:00,
2013-10-23 23:58:00,36.5,28.7,29.81,ESE,112,1.7,-999.0,73,-99.99,,,0.00,Acu-Link.com,2013-10-24 03:58:00,